| time (UTC) | temp C | wind direction | speed KPH | gust KPH | rain 1hr cm | rain 24hr cm | rain mn cm | humidity % | barometer mb |
| 20260510140559 | 21 | 290 | 3.2 | 9.7 | 0.00 | 0.00 | 0.00 | 67 | 1016.8 |
| 20260510140002 | 21 | 231 | 1.6 | 8.0 | 0.00 | 0.00 | 0.00 | 70 | 1016.7 |
| 20260510135700 | 21 | 330 | 1.6 | 8.0 | 0.00 | 0.00 | 0.00 | 69 | 1016.6 |
| 20260510135100 | 20 | 310 | 4.8 | 8.0 | 0.00 | 0.00 | 0.00 | 71 | 1016.7 |
| 20260510134200 | 20 | 244 | 1.6 | 8.0 | 0.00 | 0.00 | 0.00 | 73 | 1016.6 |
| 20260510133559 | 20 | 287 | 1.6 | 8.0 | 0.00 | 0.00 | 0.00 | 76 | 1016.5 |
| 20260510132700 | 19 | 293 | 3.2 | 8.0 | 0.00 | 0.00 | 0.00 | 76 | 1016.6 |
| 20260510132101 | 19 | 297 | 3.2 | 8.0 | 0.00 | 0.00 | 0.00 | 77 | 1016.6 |
| 20260510131159 | 18 | 293 | 1.6 | 9.7 | 0.00 | 0.00 | 0.00 | 80 | 1016.6 |
| 20260510130600 | 18 | 307 | 3.2 | 8.0 | 0.00 | 0.00 | 0.00 | 80 | 1016.6 |
| 20260510130001 | 17 | 257 | 3.2 | 9.7 | 0.00 | 0.00 | 0.00 | 82 | 1016.6 |
| 20260510125700 | 17 | 312 | 4.8 | 11.3 | 0.00 | 0.00 | 0.00 | 80 | 1016.7 |
| 20260510125059 | 17 | 299 | 4.8 | 11.3 | 0.00 | 0.00 | 0.00 | 81 | 1016.6 |
| 20260510124159 | 17 | 299 | 1.6 | 6.4 | 0.00 | 0.00 | 0.00 | 82 | 1016.4 |
| 20260510123600 | 17 | 248 | 0.0 | 3.2 | 0.00 | 0.00 | 0.00 | 83 | 1016.3 |
| 20260510122659 | 17 | 266 | 1.6 | 6.4 | 0.00 | 0.00 | 0.00 | 83 | 1016.2 |
| 20260510122059 | 17 | 219 | 0.0 | 1.6 | 0.00 | 0.00 | 0.00 | 86 | 1016.1 |
| 20260510121159 | 16 | 236 | 0.0 | 1.6 | 0.00 | 0.00 | 0.00 | 90 | 1016.0 |
| 20260510120600 | 16 | 248 | 0.0 | 1.6 | 0.00 | 0.00 | 0.00 | 91 | 1016.0 |
| 20260510120003 | 15 | 147 | 0.0 | 1.6 | 0.00 | 0.00 | 0.00 | 92 | 1015.8 |
| 20260510115700 | 15 | 166 | 0.0 | 1.6 | 0.00 | 0.00 | 0.00 | 93 | 1015.7 |
| 20260510115059 | 14 | 149 | 0.0 | 0.0 | 0.00 | 0.00 | 0.00 | 95 | 1015.6 |
| 20260510114201 | 13 | 150 | 0.0 | 3.2 | 0.00 | 0.00 | 0.00 | 97 | 1015.5 |
| 20260510113559 | 13 | 151 | 0.0 | 3.2 | 0.00 | 0.00 | 0.00 | 98 | 1015.6 |
| 20260510112702 | 12 | 331 | 0.0 | 1.6 | 0.00 | 0.00 | 0.00 | 98 | 1015.4 |
| 20260510112059 | 12 | 333 | 0.0 | 0.0 | 0.00 | 0.00 | 0.00 | 98 | 1015.3 |
| 20260510111200 | 11 | 333 | 0.0 | 0.0 | 0.00 | 0.00 | 0.00 | 99 | 1015.0 |
| 20260510110600 | 11 | 333 | 0.0 | 0.0 | 0.00 | 0.00 | 0.00 | 99 | 1014.9 |
| 20260510110004 | 11 | 333 | 0.0 | 0.0 | 0.00 | 0.00 | 0.00 | 99 | 1014.6 |
| 20260510105659 | 11 | 333 | 0.0 | 0.0 | 0.00 | 0.00 | 0.00 | 99 | 1014.6 |
| 20260510105100 | 11 | 333 | 0.0 | 0.0 | 0.00 | 0.00 | 0.00 | 99 | 1014.5 |
| 20260510104159 | 11 | 333 | 0.0 | 0.0 | 0.00 | 0.00 | 0.00 | 99 | 1014.4 |
| 20260510103559 | 10 | 333 | 0.0 | 0.0 | 0.00 | 0.00 | 0.00 | 99 | 1014.4 |
| 20260510102659 | 10 | 333 | 0.0 | 0.0 | 0.00 | 0.00 | 0.00 | 97 | 1014.4 |
| 20260510102100 | 10 | 333 | 0.0 | 1.6 | 0.00 | 0.00 | 0.00 | 97 | 1014.4 |
| 20260510101201 | 11 | 333 | 0.0 | 0.0 | 0.00 | 0.00 | 0.00 | 97 | 1014.5 |
| 20260510100600 | 11 | 333 | 0.0 | 0.0 | 0.00 | 0.00 | 0.00 | 97 | 1014.3 |
| 20260510100002 | 11 | 333 | 0.0 | 0.0 | 0.00 | 0.00 | 0.00 | 97 | 1014.1 |
| 20260510095658 | 12 | 332 | 0.0 | 0.0 | 0.00 | 0.00 | 0.00 | 97 | 1014.1 |
| 20260510095100 | 12 | 333 | 0.0 | 1.6 | 0.00 | 0.00 | 0.00 | 97 | 1014.2 |
| 20260510094200 | 12 | 333 | 0.0 | 1.6 | 0.00 | 0.00 | 0.00 | 99 | 1014.0 |
| 20260510093559 | 12 | 331 | 0.0 | 1.6 | 0.00 | 0.00 | 0.00 | 99 | 1013.9 |
| 20260510092700 | 12 | 360 | 0.0 | 3.2 | 0.00 | 0.00 | 0.00 | 99 | 1013.7 |
| 20260510092100 | 12 | 52 | 0.0 | 3.2 | 0.00 | 0.00 | 0.00 | 99 | 1013.6 |
| 20260510091159 | 12 | 356 | 0.0 | 1.6 | 0.00 | 0.00 | 0.00 | 98 | 1013.4 |
| 20260510090559 | 12 | 9 | 0.0 | 1.6 | 0.00 | 0.00 | 0.00 | 98 | 1013.4 |
| 20260510090002 | 12 | 10 | 0.0 | 1.6 | 0.00 | 0.00 | 0.00 | 98 | 1013.4 |
| 20260510085059 | 13 | 11 | 0.0 | 1.6 | 0.00 | 0.00 | 0.00 | 98 | 1013.4 |
| 20260510084159 | 13 | 10 | 0.0 | 0.0 | 0.00 | 0.00 | 0.00 | 99 | 1013.3 |
| 20260510083559 | 13 | 10 | 0.0 | 1.6 | 0.00 | 0.00 | 0.00 | 99 | 1013.2 |
| 20260510083000 | 13 | 356 | 0.0 | 4.8 | 0.00 | 0.00 | 0.00 | 99 | 1013.1 |
| 20260510082700 | 13 | 354 | 0.0 | 4.8 | 0.00 | 0.00 | 0.00 | 100 | 1013.1 |
| 20260510082059 | 13 | 339 | 0.0 | 4.8 | 0.00 | 0.00 | 0.00 | 99 | 1013.2 |
| 20260510081203 | 13 | 13 | 0.0 | 1.6 | 0.00 | 0.00 | 0.00 | 99 | 1013.2 |
| 20260510080600 | 13 | 343 | 0.0 | 1.6 | 0.00 | 0.00 | 0.00 | 98 | 1013.1 |
| 20260510080002 | 13 | 343 | 0.0 | 0.0 | 0.00 | 0.00 | 0.00 | 98 | 1013.1 |
| 20260510075701 | 13 | 343 | 0.0 | 0.0 | 0.00 | 0.00 | 0.00 | 98 | 1013.1 |
| 20260510075059 | 13 | 343 | 0.0 | 0.0 | 0.00 | 0.00 | 0.00 | 98 | 1013.1 |
| 20260510074159 | 13 | 343 | 0.0 | 0.0 | 0.00 | 0.00 | 0.00 | 99 | 1013.1 |
| 20260510073559 | 13 | 343 | 0.0 | 0.0 | 0.00 | 0.00 | 0.00 | 98 | 1013.0 |
| 20260510072659 | 13 | 343 | 0.0 | 1.6 | 0.00 | 0.00 | 0.00 | 98 | 1012.8 |
| 20260510072059 | 13 | 7 | 0.0 | 0.0 | 0.00 | 0.00 | 0.00 | 98 | 1012.9 |
| 20260510071159 | 13 | 7 | 0.0 | 0.0 | 0.00 | 0.00 | 0.00 | 97 | 1012.9 |
| 20260510070559 | 14 | 8 | 0.0 | 0.0 | 0.00 | 0.00 | 0.00 | 97 | 1013.0 |
| 20260510070003 | 14 | 8 | 0.0 | 1.6 | 0.00 | 0.00 | 0.00 | 97 | 1013.0 |
| 20260510065659 | 14 | 8 | 0.0 | 1.6 | 0.00 | 0.00 | 0.00 | 98 | 1013.0 |
| 20260510065101 | 15 | 8 | 0.0 | 1.6 | 0.00 | 0.00 | 0.00 | 99 | 1013.0 |
| 20260510064159 | 14 | 1 | 0.0 | 1.6 | 0.00 | 0.00 | 0.00 | 99 | 1013.1 |
| 20260510063603 | 14 | 1 | 0.0 | 1.6 | 0.00 | 0.00 | 0.00 | 99 | 1013.1 |
| 20260510062659 | 14 | 9 | 0.0 | 1.6 | 0.00 | 0.00 | 0.00 | 99 | 1013.0 |
| 20260510062100 | 13 | 10 | 0.0 | 1.6 | 0.00 | 0.00 | 0.00 | 98 | 1013.1 |
| 20260510061200 | 13 | 319 | 0.0 | 0.0 | 0.00 | 0.00 | 0.00 | 98 | 1013.2 |
| 20260510060602 | 13 | 319 | 0.0 | 0.0 | 0.00 | 0.00 | 0.00 | 99 | 1013.2 |
| 20260510060002 | 13 | 319 | 0.0 | 0.0 | 0.00 | 0.00 | 0.00 | 97 | 1013.2 |
| 20260510055659 | 13 | 319 | 0.0 | 0.0 | 0.00 | 0.00 | 0.00 | 97 | 1013.2 |
| 20260510055059 | 13 | 319 | 0.0 | 0.0 | 0.00 | 0.00 | 0.00 | 97 | 1013.1 |
| 20260510054200 | 13 | 319 | 0.0 | 0.0 | 0.00 | 0.00 | 0.00 | 97 | 1013.2 |
| 20260510053559 | 13 | 319 | 0.0 | 0.0 | 0.00 | 0.00 | 0.00 | 97 | 1013.3 |
| 20260510052701 | 13 | 319 | 0.0 | 0.0 | 0.00 | 0.00 | 0.00 | 97 | 1013.4 |
| 20260510052059 | 13 | 319 | 0.0 | 0.0 | 0.00 | 0.00 | 0.00 | 96 | 1013.4 |
| 20260510051200 | 14 | 319 | 0.0 | 0.0 | 0.00 | 0.00 | 0.00 | 97 | 1013.6 |
| 20260510050559 | 14 | 319 | 0.0 | 0.0 | 0.00 | 0.00 | 0.00 | 97 | 1013.7 |
| 20260510050002 | 14 | 319 | 0.0 | 0.0 | 0.00 | 0.00 | 0.00 | 96 | 1013.7 |
| 20260510045102 | 14 | 319 | 0.0 | 0.0 | 0.00 | 0.00 | 0.00 | 95 | 1013.6 |
| 20260510044500 | 15 | 319 | 0.0 | 0.0 | 0.00 | 0.00 | 0.00 | 95 | 1013.7 |
| 20260510043603 | 15 | 319 | 0.0 | 0.0 | 0.00 | 0.00 | 0.00 | 96 | 1013.6 |
| 20260510043001 | 15 | 319 | 0.0 | 0.0 | 0.00 | 0.00 | 0.00 | 96 | 1013.6 |
| 20260510042100 | 15 | 342 | 0.0 | 0.0 | 0.00 | 0.00 | 0.00 | 95 | 1013.6 |
| 20260510041500 | 15 | 342 | 0.0 | 0.0 | 0.00 | 0.00 | 0.00 | 94 | 1013.5 |
| 20260510040602 | 15 | 342 | 0.0 | 0.0 | 0.00 | 0.00 | 0.00 | 94 | 1013.4 |
| 20260510040005 | 15 | 342 | 0.0 | 0.0 | 0.00 | 0.00 | 0.00 | 93 | 1013.5 |
| 20260510035101 | 15 | 342 | 0.0 | 1.6 | 0.00 | 0.00 | 0.00 | 94 | 1013.3 |
| 20260510034501 | 15 | 233 | 0.0 | 4.8 | 0.00 | 0.00 | 0.00 | 94 | 1013.2 |
| 20260510033601 | 15 | 160 | 0.0 | 0.0 | 0.00 | 0.00 | 0.00 | 93 | 1013.0 |
| 20260510033001 | 15 | 159 | 0.0 | 0.0 | 0.00 | 0.00 | 0.00 | 94 | 1013.0 |
| 20260510032105 | 15 | 159 | 0.0 | 0.0 | 0.00 | 0.00 | 0.00 | 93 | 1012.9 |
| 20260510031503 | 16 | 159 | 0.0 | 0.0 | 0.00 | 0.00 | 0.00 | 93 | 1012.8 |
| 20260510030604 | 15 | 159 | 0.0 | 0.0 | 0.00 | 0.00 | 0.00 | 94 | 1012.7 |
| 20260510030008 | 15 | 159 | 0.0 | 0.0 | 0.00 | 0.00 | 0.00 | 94 | 1012.8 |
| 20260510025103 | 15 | 159 | 0.0 | 0.0 | 0.00 | 0.00 | 0.00 | 94 | 1012.7 |
| 20260510024501 | 15 | 159 | 0.0 | 0.0 | 0.00 | 0.00 | 0.00 | 93 | 1012.7 |
| 20260510023600 | 15 | 159 | 0.0 | 0.0 | 0.00 | 0.00 | 0.00 | 93 | 1012.6 |
| 20260510023001 | 15 | 159 | 0.0 | 0.0 | 0.00 | 0.00 | 0.00 | 93 | 1012.6 |
| 20260510022101 | 15 | 159 | 0.0 | 0.0 | 0.00 | 0.00 | 0.00 | 92 | 1012.6 |
| 20260510021500 | 16 | 159 | 0.0 | 0.0 | 0.00 | 0.00 | 0.00 | 92 | 1012.4 |
| 20260510020604 | 16 | 159 | 0.0 | 0.0 | 0.00 | 0.00 | 0.00 | 91 | 1012.2 |
| 20260510020006 | 16 | 159 | 0.0 | 0.0 | 0.00 | 0.00 | 0.00 | 91 | 1012.2 |
| 20260510015104 | 16 | 159 | 0.0 | 0.0 | 0.00 | 0.00 | 0.00 | 90 | 1012.0 |
| 20260510014504 | 16 | 159 | 0.0 | 0.0 | 0.00 | 0.00 | 0.00 | 90 | 1012.0 |
| 20260510013601 | 16 | 159 | 0.0 | 0.0 | 0.00 | 0.00 | 0.00 | 89 | 1011.7 |
| 20260510013000 | 16 | 159 | 0.0 | 0.0 | 0.00 | 0.00 | 0.00 | 87 | 1011.5 |
| 20260510012100 | 17 | 159 | 0.0 | 0.0 | 0.00 | 0.00 | 0.00 | 88 | 1011.5 |
| 20260510010600 | 17 | 159 | 0.0 | 0.0 | 0.00 | 0.00 | 0.00 | 84 | 1011.2 |
| 20260510004502 | 18 | 159 | 0.0 | 0.0 | 0.00 | 0.00 | 0.00 | 82 | 1011.0 |
| 20260510003601 | 19 | 159 | 0.0 | 0.0 | 0.00 | 0.00 | 0.00 | 80 | 1010.9 |
| 20260510002100 | 19 | 160 | 0.0 | 0.0 | 0.00 | 0.00 | 0.00 | 79 | 1010.8 |
| 20260510001501 | 19 | 155 | 0.0 | 0.0 | 0.00 | 0.00 | 0.00 | 78 | 1010.9 |
| 20260510001200 | 19 | 120 | 0.0 | 0.0 | 0.00 | 0.00 | 0.00 | 77 | 1011.0 |
| 20260510000603 | 20 | 120 | 0.0 | 0.0 | 0.00 | 0.00 | 0.00 | 76 | 1010.9 |
| 20260510000001 | 20 | 120 | 0.0 | 0.0 | 0.00 | 0.00 | 0.00 | 74 | 1010.8 |
| 20260509235102 | 21 | 120 | 0.0 | 0.0 | 0.00 | 0.00 | 0.00 | 72 | 1010.7 |
| 20260509234200 | 22 | 120 | 0.0 | 0.0 | 0.00 | 0.00 | 0.00 | 69 | 1010.6 |
| 20260509232700 | 24 | 120 | 0.0 | 0.0 | 0.00 | 0.00 | 0.00 | 64 | 1010.4 |
| 20260509232100 | 24 | 120 | 0.0 | 0.0 | 0.00 | 0.00 | 0.00 | 64 | 1010.4 |
| 20260509231200 | 23 | 121 | 0.0 | 0.0 | 0.00 | 0.00 | 0.00 | 66 | 1010.0 |
| 20260509230600 | 23 | 121 | 0.0 | 0.0 | 0.00 | 0.00 | 0.00 | 66 | 1010.0 |
| 20260509230004 | 23 | 121 | 0.0 | 0.0 | 0.00 | 0.00 | 0.00 | 65 | 1010.1 |
| 20260509225701 | 23 | 121 | 0.0 | 0.0 | 0.00 | 0.00 | 0.00 | 63 | 1010.2 |
| 20260509225100 | 23 | 121 | 0.0 | 0.0 | 0.00 | 0.00 | 0.00 | 63 | 1010.2 |
| 20260509223600 | 23 | 121 | 0.0 | 1.6 | 0.00 | 0.00 | 0.00 | 63 | 1010.2 |
| 20260509222700 | 23 | 117 | 0.0 | 3.2 | 0.00 | 0.00 | 0.00 | 64 | 1010.3 |
| 20260509222100 | 23 | 132 | 0.0 | 3.2 | 0.00 | 0.00 | 0.00 | 63 | 1010.3 |
| 20260509221503 | 23 | 128 | 0.0 | 6.4 | 0.00 | 0.00 | 0.00 | 63 | 1010.3 |
| 20260509221203 | 23 | 71 | 0.0 | 4.8 | 0.00 | 0.00 | 0.00 | 63 | 1010.2 |
| 20260509220602 | 24 | 195 | 0.0 | 12.9 | 0.00 | 0.00 | 0.00 | 62 | 1010.2 |
| 20260509220004 | 24 | 227 | 0.0 | 9.7 | 0.00 | 0.00 | 0.00 | 62 | 1010.0 |
| 20260509215701 | 24 | 266 | 1.6 | 9.7 | 0.00 | 0.00 | 0.00 | 61 | 1010.2 |
| 20260509215101 | 24 | 304 | 3.2 | 11.3 | 0.00 | 0.00 | 0.00 | 60 | 1010.0 |
| 20260509214200 | 25 | 264 | 0.0 | 6.4 | 0.00 | 0.00 | 0.00 | 56 | 1010.0 |
| 20260509213602 | 25 | 177 | 0.0 | 8.0 | 0.00 | 0.00 | 0.00 | 56 | 1009.8 |
| 20260509212701 | 24 | 94 | 0.0 | 4.8 | 0.00 | 0.00 | 0.00 | 61 | 1009.9 |
| 20260509212100 | 23 | 120 | 0.0 | 8.0 | 0.00 | 0.00 | 0.00 | 60 | 1009.8 |
| 20260509211200 | 25 | 352 | 1.6 | 8.0 | 0.00 | 0.00 | 0.00 | 58 | 1009.9 |
| 20260509210600 | 25 | 168 | 3.2 | 6.4 | 0.00 | 0.00 | 0.00 | 58 | 1009.8 |
| 20260509210010 | 25 | 264 | 1.6 | 6.4 | 0.00 | 0.00 | 0.00 | 60 | 1009.8 |
| 20260509205700 | 25 | 214 | 0.0 | 11.3 | 0.00 | 0.00 | 0.00 | 61 | 1009.8 |
| 20260509205100 | 25 | 62 | 1.6 | 11.3 | 0.00 | 0.00 | 0.00 | 59 | 1009.9 |
| 20260509204201 | 25 | 51 | 1.6 | 12.9 | 0.00 | 0.00 | 0.00 | 57 | 1009.9 |
| 20260509203604 | 25 | 222 | 1.6 | 4.8 | 0.00 | 0.00 | 0.00 | 60 | 1010.0 |
| 20260509202701 | 23 | 146 | 3.2 | 12.9 | 0.00 | 0.00 | 0.00 | 60 | 1010.0 |
| 20260509202102 | 24 | 302 | 3.2 | 14.5 | 0.00 | 0.00 | 0.00 | 56 | 1010.2 |
| 20260509201202 | 25 | 104 | 1.6 | 8.0 | 0.00 | 0.00 | 0.00 | 58 | 1010.1 |
| 20260509200600 | 24 | 183 | 1.6 | 11.3 | 0.00 | 0.00 | 0.00 | 60 | 1010.1 |
| 20260509200003 | 25 | 213 | 0.0 | 8.0 | 0.00 | 0.00 | 0.00 | 58 | 1010.0 |
| 20260509195701 | 25 | 212 | 0.0 | 9.7 | 0.00 | 0.00 | 0.00 | 60 | 1010.0 |
| 20260509195100 | 24 | 158 | 3.2 | 9.7 | 0.00 | 0.00 | 0.00 | 61 | 1010.0 |
| 20260509194202 | 24 | 160 | 1.6 | 8.0 | 0.00 | 0.00 | 0.00 | 59 | 1010.2 |
| 20260509193600 | 24 | 128 | 1.6 | 6.4 | 0.00 | 0.00 | 0.00 | 59 | 1010.1 |
| 20260509192700 | 23 | 246 | 1.6 | 14.5 | 0.00 | 0.00 | 0.00 | 58 | 1010.2 |
| 20260509192100 | 24 | 169 | 0.0 | 16.1 | 0.00 | 0.00 | 0.00 | 58 | 1010.3 |
| 20260509191200 | 24 | 162 | 1.6 | 11.3 | 0.00 | 0.00 | 0.00 | 59 | 1010.6 |
| 20260509190600 | 25 | 207 | 0.0 | 11.3 | 0.00 | 0.00 | 0.00 | 55 | 1010.6 |
| 20260509190006 | 25 | 239 | 3.2 | 17.7 | 0.00 | 0.00 | 0.00 | 55 | 1010.7 |
| 20260509185701 | 24 | 204 | 4.8 | 17.7 | 0.00 | 0.00 | 0.00 | 58 | 1010.6 |
| 20260509185100 | 23 | 115 | 1.6 | 11.3 | 0.00 | 0.00 | 0.00 | 60 | 1010.6 |
| 20260509184200 | 23 | 241 | 3.2 | 14.5 | 0.00 | 0.00 | 0.00 | 56 | 1010.8 |
| 20260509183600 | 23 | 259 | 3.2 | 14.5 | 0.00 | 0.00 | 0.00 | 57 | 1010.9 |
| 20260509182702 | 24 | 110 | 6.4 | 12.9 | 0.00 | 0.00 | 0.00 | 58 | 1011.2 |
| 20260509182100 | 24 | 333 | 4.8 | 19.3 | 0.00 | 0.00 | 0.00 | 59 | 1011.2 |
| 20260509181201 | 23 | 252 | 4.8 | 19.3 | 0.00 | 0.00 | 0.00 | 58 | 1011.4 |
| 20260509180600 | 23 | 258 | 3.2 | 14.5 | 0.00 | 0.00 | 0.00 | 58 | 1011.5 |
| 20260509180002 | 23 | 133 | 4.8 | 14.5 | 0.00 | 0.00 | 0.00 | 63 | 1011.5 |
| 20260509175700 | 23 | 242 | 3.2 | 14.5 | 0.00 | 0.00 | 0.00 | 58 | 1011.6 |
| 20260509175100 | 23 | 241 | 0.0 | 14.5 | 0.00 | 0.00 | 0.00 | 63 | 1011.6 |
| 20260509174201 | 23 | 269 | 1.6 | 20.9 | 0.00 | 0.00 | 0.00 | 59 | 1011.7 |
| 20260509173600 | 23 | 270 | 4.8 | 24.1 | 0.00 | 0.00 | 0.00 | 64 | 1011.7 |
| 20260509172701 | 23 | 259 | 6.4 | 20.9 | 0.00 | 0.00 | 0.00 | 61 | 1011.8 |
| 20260509172100 | 23 | 300 | 3.2 | 12.9 | 0.00 | 0.00 | 0.00 | 62 | 1011.8 |
| 20260509171200 | 22 | 255 | 4.8 | 22.5 | 0.00 | 0.00 | 0.00 | 63 | 1012.0 |
| 20260509170601 | 22 | 206 | 3.2 | 17.7 | 0.00 | 0.00 | 0.00 | 63 | 1011.9 |
| 20260509170009 | 23 | 270 | 0.0 | 11.3 | 0.00 | 0.00 | 0.00 | 65 | 1011.9 |
| 20260509165701 | 23 | 222 | 3.2 | 11.3 | 0.00 | 0.00 | 0.00 | 65 | 1011.7 |
| 20260509165100 | 23 | 179 | 3.2 | 12.9 | 0.00 | 0.00 | 0.00 | 65 | 1011.9 |
| 20260509164200 | 22 | 219 | 6.4 | 22.5 | 0.00 | 0.00 | 0.00 | 66 | 1012.1 |
| 20260509163559 | 22 | 290 | 8.0 | 22.5 | 0.00 | 0.00 | 0.00 | 64 | 1012.3 |
| 20260509162700 | 22 | 203 | 3.2 | 11.3 | 0.00 | 0.00 | 0.00 | 67 | 1012.5 |
| 20260509162100 | 22 | 203 | 3.2 | 17.7 | 0.00 | 0.00 | 0.00 | 68 | 1012.4 |
| 20260509161200 | 21 | 256 | 4.8 | 20.9 | 0.00 | 0.00 | 0.00 | 69 | 1012.5 |
| 20260509160600 | 21 | 300 | 4.8 | 20.9 | 0.00 | 0.00 | 0.00 | 67 | 1012.5 |
| 20260509160004 | 22 | 247 | 6.4 | 16.1 | 0.00 | 0.00 | 0.00 | 66 | 1012.6 |
| 20260509155701 | 22 | 299 | 4.8 | 11.3 | 0.00 | 0.00 | 0.00 | 67 | 1012.6 |
| 20260509155059 | 22 | 276 | 4.8 | 19.3 | 0.00 | 0.00 | 0.00 | 68 | 1012.7 |
| 20260509154200 | 22 | 243 | 4.8 | 20.9 | 0.00 | 0.00 | 0.00 | 67 | 1012.7 |
| 20260509153559 | 21 | 288 | 4.8 | 14.5 | 0.00 | 0.00 | 0.00 | 70 | 1012.8 |
| 20260509152701 | 21 | 264 | 8.0 | 20.9 | 0.00 | 0.00 | 0.00 | 68 | 1012.8 |
| 20260509152100 | 21 | 321 | 3.2 | 9.7 | 0.00 | 0.00 | 0.00 | 71 | 1012.8 |
| 20260509151200 | 21 | 103 | 4.8 | 11.3 | 0.00 | 0.00 | 0.00 | 71 | 1013.0 |
| 20260509150600 | 20 | 251 | 3.2 | 11.3 | 0.00 | 0.00 | 0.00 | 72 | 1013.1 |
| 20260509150007 | 20 | 238 | 3.2 | 12.9 | 0.00 | 0.00 | 0.00 | 73 | 1013.1 |
| 20260509145701 | 20 | 224 | 3.2 | 16.1 | 0.00 | 0.00 | 0.00 | 75 | 1013.1 |
| 20260509145105 | 20 | 97 | 3.2 | 11.3 | 0.00 | 0.00 | 0.00 | 73 | 1013.1 |
| 20260509144202 | 20 | 130 | 1.6 | 19.3 | 0.00 | 0.00 | 0.00 | 76 | 1013.0 |
| 20260509143603 | 19 | 206 | 1.6 | 19.3 | 0.00 | 0.00 | 0.00 | 79 | 1013.0 |
| 20260509142659 | 18 | 143 | 1.6 | 11.3 | 0.00 | 0.00 | 0.00 | 78 | 1013.1 |
| 20260509142100 | 18 | 319 | 1.6 | 8.0 | 0.00 | 0.00 | 0.00 | 81 | 1013.4 |
| 20260509141201 | 18 | 122 | 0.0 | 9.7 | 0.00 | 0.00 | 0.00 | 80 | 1013.6 |